{"data":{"norad_id":51717,"intl_designator":"2022-016D","name":"STARLINK-3445","alt_names":[],"object_type":"PAYLOAD","status":"ACTIVE","operator":null,"country":"US","launch_date":"2022-02-21","launch_site_code":"AFETR","launch_vehicle":null,"mission":null,"orbit_class":"UNKNOWN","rcs_meters":null,"size_class":null,"mass_kg":null,"dimensions":null,"purposes":["comms"],"wikipedia_slug":null,"has_3d_model":false,"image_url":null,"decayed_at":null,"tle_current":{"epoch":"2026-09-20T00:29:05.567712Z","epoch_age_seconds":89930,"freshness":"FRESH","line1":"1 51717U 22016D   26263.02020333 -.00000337  00000+0  89737-6 0  9997","line2":"2 51717  53.1597 162.0474 0001254  90.8096 269.3049 15.31698627252966","mean_motion":15.31698627,"eccentricity":0.0001254,"inclination_deg":53.1597,"raan_deg":162.0474,"arg_perigee_deg":90.8096,"mean_anomaly_deg":269.3049,"bstar":8.9737e-7,"rev_number":25296,"period_min":94.013272233612,"perigee_km":469.88523838182,"apogee_km":471.6029377587,"semimajor_km":6848.8810880703,"source":"CELESTRAK","updated_at":"2026-09-20T09:00:39.597476Z"}}}